Regional Weather Roundup
Issued by NWS

Home | Current Version | Previous Version | Graphics & Text | Print | Product List | Glossary On
Versions: 1 2 3 4 5 6 7 8 9 10 11 12 13 14 15 16 17 18 19 20 21 22 23 24 25 26 27 28 29 30 31 32 33 34 35 36 37 38 39 40 41 42 43 44 45 46 47 48 49 50
509
ASUS43 KOAX 302010
RWRNE

WEATHER ROUNDUP FOR NEBRASKA
NATIONAL WEATHER SERVICE OMAHA NE
300 PM CDT SAT JUL 30 2016

NOTES: SATELLITE DATA IS BEING USED TO AUGMENT CLOUD COVER ABOVE
       12000 FEET.
       "FAIR" INDICATES FEW OR NO CLOUDS BELOW 12,000 FEET WITH NO
       SIGNIFICANT WEATHER AND/OR OBSTRUCTIONS TO VISIBILITY.

  * THESE STATIONS DO NOT REPORT WEATHER SUCH AS RAIN...SNOW OR FOG.

NEZ001>004-019>022-054>056-302100-
NEBRASKA PANHANDLE

CITY           SKY/WX    TMP DP  RH WIND       PRES   REMARKS
SCOTTSBLUFF    SUNNY     86  62  44 E17       29.96F
ALLIANCE       SUNNY     83  60  45 S13       29.97F
CHADRON        SUNNY     91  55  29 S10G24    29.89F
KIMBALL        SUNNY     85  55  34 SE14G20   30.03F
SIDNEY         SUNNY     87  54  32 SE10G18   30.02S
$$

NEZ057>060-069>072-079>082-302100-
SOUTHWEST NEBRASKA

CITY           SKY/WX    TMP DP  RH WIND       PRES   REMARKS
NORTH PLATTE   MOSUNNY   83  69  62 SE10G18   29.95F
IMPERIAL       SUNNY     87  60  40 SE15G22   29.95F
LEXINGTON      MOSUNNY   82  69  65 S9G16     29.97F
MCCOOK         SUNNY     89  62  40 E12       29.93F
OGALLALA       SUNNY     86  57  36 SE9G17    29.96F
$$

NEZ005>010-023>029-035>040-094-302100-
NORTH CENTRAL NEBRASKA

CITY           SKY/WX    TMP DP  RH WIND       PRES   REMARKS
VALENTINE      SUNNY     86  59  39 SE12      29.93F
AINSWORTH      SUNNY     82  65  54 S8        29.96S
BROKEN BOW     MOSUNNY   79  68  69 S16       29.97F
O`NEILL        MOSUNNY   82  65  56 SE15      29.97S
ORD            MOSUNNY   81  65  58 S9G18     29.96S
THEDFORD       SUNNY     83  66  55 S14G21    29.97F
$$

NEZ041-046>049-061>064-073>077-083>087-302100-
SOUTH CENTRAL NEBRASKA

CITY           SKY/WX    TMP DP  RH WIND       PRES   REMARKS
GRAND ISLAND   MOSUNNY   80  67  64 SE9       29.98F
AURORA         MOSUNNY   78  70  75 SE7       29.98F
HASTINGS       MOSUNNY   82  68  62 S8        29.98F
HEBRON         SUNNY     81  66  61 SE8       29.98F
HOLDREGE       SUNNY     83  65  54 S13G20    29.96F
KEARNEY *      MOSUNNY   82  70  65 SE14      29.98S
YORK           SUNNY     75  66  73 SE6       29.99F
$$

NEZ011>018-030>034-042>045-302100-
NORTHEAST NEBRASKA

CITY           SKY/WX    TMP DP  RH WIND       PRES   REMARKS
NORFOLK        PTSUNNY   80  62  54 SE10G21   29.99F
ALBION         PTSUNNY   75  64  68 SE12      29.99F
BLAIR          CLOUDY    79  65  62 SE7       30.00S
FREMONT        MOSUNNY   80  62  53 SE8       30.00F
TEKAMAH        MOSUNNY   81  63  54 SE8       29.98F
WAYNE          MOSUNNY   74  65  72 SE9       30.00F
$$

NEZ050>053-065>068-078-088>093-302100-
SOUTHEAST NEBRASKA

CITY           SKY/WX    TMP DP  RH WIND       PRES   REMARKS
LINCOLN        CLOUDY    76  65  68 SE13      30.00F
OMAHA EPPLEY   CLOUDY    80  64  58 SE7       30.00S
BEATRICE       MOSUNNY   76  65  70 SE5       30.00S
FALLS CITY     LGT RAIN  73  69  87 SE8G21    29.97F
NEBRASKA CITY  CLOUDY    77  67  72 SE8       30.00F
PLATTSMOUTH    CLOUDY    76  67  72 SE6       30.00F
$$

NEZ044-045-051>053-067-302100-
OMAHA AREA

CITY           SKY/WX    TMP DP  RH WIND       PRES   REMARKS
OMAHA EPPLEY   CLOUDY    80  64  58 SE7       30.00S
BLAIR          CLOUDY    79  65  62 SE7       30.00S
FREMONT        MOSUNNY   80  62  53 SE8       30.00F
MILLARD        MOSUNNY   79  65  61 SE8       29.99F
OFFUTT AFB     MOSUNNY   80  65  60 SE9       29.99F
PLATTSMOUTH    CLOUDY    76  67  72 SE6       30.00F
WAHOO          FAIR      79  63  58 SE10      29.99F
$$




USA.gov is the U.S. government's official web portal to all federal, state and local government web resources and services.